Location: Ripley
(48.3812°N, 115.4473°W)
Time: 01:05:28
(UTC+00:00)

EO-79 - Pass Details

Date: 02 July 2022
Orbit: 588 x 603 km, 98.0° (Epoch: 15 August)

Event Time Altitude Azimuth Distance (km) Brightness Sun altitude
Rises 10:45:50 0° 0° (N) 2,857 ? -8.0°
Reaches altitude 10° 10:48:29 10° 343° (NNW) 1,952 ? -7.8°
Maximum altitude 10:51:29 19° 298° (WNW) 1,445 ? -7.4°
Drops below altitude 10° 10:54:29 10° 253° (WSW) 1,948 ? -7.1°
Enters shadow 10:55:20 - 246° (WSW) 2,210 ? -7.0°
